This is the latest recevied weather packets stored in our database for station/object KD0RII. If no packets are shown the sender has not sent any weather packets the latest 10 day(s).
| Time | Temp. | Humidity | Pressure | Rain* | Wind** | Luminosity | Snow |
|---|---|---|---|---|---|---|---|
| 1777701910 | 4.44° C | 82% | 1021.4 hPa | 0 mm | - | 0 W/m² | - |
| 1777701608 | 5° C | 81% | 1021.4 hPa | 0 mm | - | 0 W/m² | - |
| 1777701305 | 5° C | 81% | 1021.6 hPa | 0 mm | - | 0 W/m² | - |
| 1777701004 | 5.56° C | 80% | 1021.6 hPa | 0 mm | - | 0 W/m² | - |
| 1777700702 | 5.56° C | 80% | 1021.4 hPa | 0 mm | - | 0 W/m² | - |
| 1777700399 | 6.11° C | 80% | 1021.6 hPa | 0 mm | - | 0 W/m² | - |
| 1777700096 | 6.11° C | 80% | 1021.4 hPa | 0 mm | - | 0 W/m² | - |
| 1777699794 | 6.11° C | 79% | 1021.5 hPa | 0 mm | - | 0 W/m² | - |
| 1777699491 | 6.67° C | 79% | 1021.5 hPa | 0 mm | - | 0 W/m² | - |
| 1777699190 | 6.67° C | 79% | 1021.4 hPa | 0 mm | - | 0 W/m² | - |
| 1777698887 | 6.67° C | 79% | 1021.5 hPa | 0 mm | - | 0 W/m² | - |
| 1777698584 | 6.67° C | 78% | 1021.3 hPa | 0 mm | - | 0 W/m² | - |
| 1777698281 | 7.22° C | 78% | 1021.3 hPa | 0 mm | - | 0 W/m² | - |
| 1777697978 | 7.78° C | 78% | 1021.2 hPa | 0 mm | - | 0 W/m² | - |
| 1777697674 | 7.78° C | 79% | 1021.3 hPa | 0 mm | - | 0 W/m² | - |
| 1777697372 | 7.78° C | 79% | 1021.1 hPa | 0 mm | - | 0 W/m² | - |
| 1777697067 | 7.78° C | 83% | 1021.1 hPa | 0 mm | - | 0 W/m² | - |
| 1777696764 | 7.78° C | 85% | 1020.9 hPa | 0 mm | - | 0 W/m² | - |
| 1777696463 | 7.22° C | 89% | 1021.2 hPa | 0 mm | - | 0 W/m² | - |
| 1777696161 | 6.67° C | 90% | 1021 hPa | 0 mm | - | 0 W/m² | - |
| 1777695859 | 6.67° C | 90% | 1021 hPa | 0 mm | - | 0 W/m² | - |
| 1777695556 | 6.67° C | 90% | 1020.9 hPa | 0 mm | - | 0 W/m² | - |
| 1777695254 | 6.11° C | 90% | 1020.9 hPa | 0 mm | - | 0 W/m² | - |
| 1777694951 | 6.11° C | 90% | 1020.9 hPa | 0 mm | - | 0 W/m² | - |
| 1777694647 | 5.56° C | 90% | 1020.8 hPa | 0 mm | - | 0 W/m² | - |
* Rain latest hour (hover to see other rain measurements)
** Current wind speed in m/s (hover to see current wind gust speed)